Regional Weather Roundup
Issued by NWS

Home | Current Version | Previous Version | Graphics & Text | Print | Product List | Glossary On
Versions: 1 2 3 4 5 6 7 8 9 10 11 12 13 14 15 16 17 18 19 20 21 22 23 24 25 26 27 28 29 30 31 32 33 34 35 36 37 38 39 40 41 42 43 44 45 46 47 48 49 50
000
ASUS43 KLMK 020202
RWRKY
KENTUCKY REGIONAL WEATHER ROUNDUP
NATIONAL WEATHER SERVICE LOUISVILLE KY
1000 PM EDT WED OCT 01 2014

NOTE "FAIR" INDICATES FEW OR NO CLOUDS BELOW 12,000 FEET
WITH NO SIGNIFICANT WEATHER AND/OR OBSTRUCTIONS TO VISIBILITY.

KYZ001>023-026-027-061>063-070>075-020300-
WESTERN AND SOUTH CENTRAL KENTUCKY

CITY           SKY/WX    TMP DP  RH WIND       PRES   REMARKS
PADUCAH        CLEAR     73  60  63 S6        29.90R
HENDERSON      NOT AVBL
OWENSBORO      CLEAR     72  58  61 SE6       29.94R
HOPKINSVILLE   CLEAR     74  59  59 SE5       29.95R
BOWLING GREEN  CLEAR     69  56  62 CALM      29.98R
GLASGOW        NOT AVBL
$$

KYZ024-025-028>034-038-045-046-053-020300-
NORTH CENTRAL KENTUCKY

CITY           SKY/WX    TMP DP  RH WIND       PRES   REMARKS
LOUISVILLE/SDF CLEAR     73  57  57 SE6       29.97R
LOUISVILLE/LOU CLEAR     74  57  55 E3        29.98R
FORT KNOX      CLEAR     67  59  74 E2        29.97R
$$

KYZ035>037-039>044-047>052-055>060-089>105-020300-
NORTHEAST KENTUCKY

CITY           SKY/WX    TMP DP  RH WIND       PRES   REMARKS
LEXINGTON      CLEAR     70  58  65 E6        30.01R
COVINGTON      CLEAR     65  51  60 E6        30.01R
FRANKFORT      CLEAR     65  58  78 CALM      30.00R
$$

KYZ054-064>069-076>088-106>120-020300-
SOUTHEAST KENTUCKY

CITY           SKY/WX    TMP DP  RH WIND       PRES   REMARKS
JACKSON        CLEAR     69  59  70 E3        30.05R
LONDON         CLEAR     64  59  83 SE3       30.04R
SOMERSET       CLEAR     63  61  94 SE3       30.03S
MIDDLESBORO    CLEAR     60  58  93 CALM      30.06R
MONTICELLO     CLEAR     58  56  93 CALM      30.03R
$$




USA.gov is the U.S. government's official web portal to all federal, state and local government web resources and services.